Weather History for Cincinnati, OH

Change the Weather History Date:

Tuesday, April 30, 2013

  Actual Average Record
Temperature  
Mean Temperature 62 °F -  
Max Temperature 78 °F 72 °F 88 °F (1962)
Min Temperature 46 °F 49 °F 30 °F (1958)
Degree Days  
Heating Degree Days 3    
Growing Degree Days 12 (Base 50)    
Moisture  
Dew Point 52 °F    
Average Humidity 83    
Maximum Humidity 100    
Minimum Humidity 40    
Precipitation  
Precipitation 0.00 in - - ()
Sea Level Pressure  
Sea Level Pressure 30.03 in    
Wind  
Wind Speed 1 mph (SSE)    
Max Wind Speed 7 mph    
Max Gust Speed -    
Visibility 5 miles    
Events Fog    
Averages and records for this station are not official NWS values.
T = Trace of Precipitation, MM = Missing Value Source: NWS Daily Summary

Daily Weather History Graph

Daily Weather History Graph

Search for Another Location

Airport:

Trip Planner

Search our weather history database for the weather conditions in past years. The results will help you decide how hot, cold, wet, or windy it might be!

Date:

Astronomy

Apr. 30, 2013 Rise Set
Actual Time 6:40 AM EDT 8:29 PM EDT
Civil Twilight 6:11 AM EDT 8:58 PM EDT
Nautical Twilight 5:36 AM EDT 9:33 PM EDT
Astronomical Twilight 4:59 AM EDT 10:11 PM EDT
Moon 12:51 AM EDT (4/30) 11:08 AM EDT (4/30)
Length of Visible Light 14h 47m
Length of Day
13h 49m
Waning Gibbous, 70% of the Moon is Illuminated
Apr 30
Waning Gibbous
May 2
Last Quarter
May 9
New
May 18
First Quarter
May 25
Full

Hourly Weather History & Observations

Time (EDT) Temp. Dew Point Humidity Pressure Visibility Wind Dir Wind Speed Gust Speed Precip Events Conditions
12:53 AM 46.9 °F 46.9 °F 100% 30.00 in 0.2 mi SE 3.5 mph - N/A Fog Fog
1:01 AM 48.2 °F 48.2 °F 100% 30.00 in 1.2 mi Calm Calm - N/A   Partly Cloudy
1:05 AM 46.4 °F 46.4 °F 100% 30.00 in 3.0 mi Calm Calm - N/A   Partly Cloudy
1:09 AM 48.2 °F 48.2 °F 100% 30.00 in 1.8 mi Calm Calm - N/A   Partly Cloudy
1:13 AM 48.2 °F 48.2 °F 100% 30.00 in 0.5 mi Calm Calm - N/A Fog Fog
1:26 AM 46.4 °F 46.4 °F 100% 30.00 in 0.2 mi Calm Calm - N/A Fog Fog
1:53 AM 48.0 °F 48.0 °F 100% 30.00 in 0.2 mi Calm Calm - N/A Fog Fog
2:53 AM 48.9 °F 48.9 °F 100% 29.99 in 0.2 mi Calm Calm - N/A Fog Fog
3:53 AM 48.9 °F 48.9 °F 100% 30.00 in 0.2 mi Calm Calm - N/A Fog Fog
4:53 AM 48.0 °F 48.0 °F 100% 30.01 in 0.2 mi Calm Calm - N/A Fog Fog
5:53 AM 46.9 °F 46.9 °F 100% 30.02 in 0.2 mi Calm Calm - N/A Fog Fog
6:53 AM 46.9 °F 46.9 °F 100% 30.04 in 0.2 mi Calm Calm - N/A Fog Fog
7:53 AM 48.0 °F 48.0 °F 100% 30.06 in 0.1 mi Calm Calm - N/A Fog Fog
8:53 AM 51.1 °F 51.1 °F 100% 30.07 in 0.1 mi Calm Calm - N/A Fog Fog
9:19 AM 51.8 °F 51.8 °F 100% 30.07 in 3.0 mi Calm Calm - N/A   Mostly Cloudy
9:28 AM 53.6 °F 53.6 °F 100% 30.07 in 3.0 mi Calm Calm - N/A   Scattered Clouds
9:38 AM 55.4 °F 55.4 °F 100% 30.07 in 4.0 mi Calm Calm - N/A   Partly Cloudy
9:53 AM 57.0 °F 57.0 °F 100% 30.06 in 10.0 mi Calm Calm - N/A   Clear
10:53 AM 64.9 °F 55.9 °F 73% 30.06 in 10.0 mi Calm Calm - N/A   Clear
11:53 AM 70.0 °F 55.9 °F 61% 30.05 in 10.0 mi SSW 6.9 mph - N/A   Clear
12:53 PM 72.0 °F 55.9 °F 57% 30.05 in 10.0 mi South 4.6 mph - N/A   Clear
1:53 PM 75.0 °F 54.0 °F 48% 30.04 in 10.0 mi North 3.5 mph - N/A   Clear
2:53 PM 75.9 °F 53.1 °F 45% 30.02 in 10.0 mi SE 6.9 mph - N/A   Clear
3:53 PM 77.0 °F 54.0 °F 45% 30.00 in 10.0 mi WNW 3.5 mph - N/A   Clear
4:53 PM 78.1 °F 54.0 °F 43% 29.99 in 10.0 mi SE 3.5 mph - N/A   Clear
5:53 PM 77.0 °F 51.1 °F 40% 29.99 in 10.0 mi SE 5.8 mph - N/A   Clear
6:53 PM 75.9 °F 53.1 °F 45% 30.01 in 10.0 mi SSE 5.8 mph - N/A   Clear
7:53 PM 73.9 °F 53.1 °F 48% 30.03 in 10.0 mi SE 4.6 mph - N/A   Clear
8:53 PM 66.0 °F 57.0 °F 73% 30.05 in 10.0 mi Calm Calm - N/A   Clear
9:53 PM 61.0 °F 57.0 °F 87% 30.06 in 10.0 mi Calm Calm - N/A   Clear
10:53 PM 55.0 °F 54.0 °F 96% 30.07 in 10.0 mi South 3.5 mph - N/A   Clear
11:53 PM 55.9 °F 54.0 °F 93% 30.07 in 10.0 mi Calm Calm - N/A   Clear